ZS1BR-13 Weather Reports


time (UTC)temp
C
wind
direction
speed
KPH
gust
KPH
rain 1hr
cm
rain 24hr
cm
rain mn
cm
humidity
%
barometer
mb
20260505225616 16 0 0.0 0.0 0.00 0.00 0.00 70 1018.4
20260505224610 16 0 0.0 0.0 0.00 0.00 0.00 70 1018.5
20260505223604 16 0 0.0 0.0 0.00 0.00 0.00 70 1018.6
20260505222556 16 0 0.0 0.0 0.00 0.00 0.00 69 1018.7
20260505221548 16 0 0.0 0.0 0.00 0.00 0.00 68 1018.7
20260505220541 16 0 0.0 0.0 0.00 0.00 0.00 68 1018.7
20260505215535 17 0 0.0 0.0 0.00 0.00 0.00 68 1018.6
20260505214527 17 0 0.0 0.0 0.00 0.00 0.00 67 1018.9
20260505213519 17 0 0.0 0.0 0.00 0.00 0.00 67 1018.9
20260505212613 17 0 0.0 0.0 0.00 0.00 0.00 67 1018.9
20260505211606 17 0 0.0 0.0 0.00 0.00 0.00 66 1018.7
20260505210559 17 0 0.0 0.0 0.00 0.00 0.00 66 1018.4
20260505205552 17 0 0.0 0.0 0.00 0.00 0.00 65 1018.4
20260505204544 17 0 0.0 0.0 0.00 0.00 0.00 65 1018.5
20260505203536 17 0 0.0 0.0 0.00 0.00 0.00 65 1018.6
20260505202529 17 0 0.0 0.0 0.00 0.00 0.00 64 1018.6
20260505201522 17 0 0.0 0.0 0.00 0.00 0.00 64 1018.5
20260505200616 17 0 0.0 0.0 0.00 0.00 0.00 63 1018.5
20260505195609 18 0 0.0 0.0 0.00 0.00 0.00 63 1018.5
20260505194602 18 0 0.0 0.0 0.00 0.00 0.00 63 1018.6
20260505193555 18 0 0.0 0.0 0.00 0.00 0.00 62 1018.7
20260505192548 18 0 0.0 0.0 0.00 0.00 0.00 62 1018.7
20260505191541 18 0 0.0 0.0 0.00 0.00 0.00 62 1018.8
20260505190535 18 0 0.0 0.0 0.00 0.00 0.00 62 1018.6
20260505185526 18 0 0.0 0.0 0.00 0.00 0.00 62 1018.4
20260505184519 18 0 0.0 0.0 0.00 0.00 0.00 62 1018.2
20260505183612 18 0 0.0 0.0 0.00 0.00 0.00 62 1018.2
20260505182606 18 0 0.0 0.0 0.00 0.00 0.00 62 1018.0
20260505181558 18 0 0.0 0.0 0.00 0.00 0.00 62 1017.8
20260505180551 18 0 0.0 0.0 0.00 0.00 0.00 62 1017.7
20260505175545 18 0 0.0 0.0 0.00 0.00 0.00 62 1017.6
20260505174537 18 0 0.0 0.0 0.00 0.00 0.00 62 1017.5
20260505173529 18 0 0.0 0.0 0.00 0.00 0.00 61 1017.5
20260505172522 18 0 0.0 0.0 0.00 0.00 0.00 61 1017.3
20260505171616 18 0 0.0 0.0 0.00 0.00 0.00 61 1017.2
20260505170609 18 0 0.0 0.0 0.00 0.00 0.00 61 1017.1
20260505165602 18 0 0.0 0.0 0.00 0.00 0.00 60 1017.0
20260505164555 19 0 0.0 0.0 0.00 0.00 0.00 59 1016.8
20260505163548 19 0 0.0 0.0 0.00 0.00 0.00 59 1016.7
20260505162541 19 0 0.0 0.0 0.00 0.00 0.00 58 1016.6
20260505161535 19 0 0.0 0.0 0.00 0.00 0.00 58 1016.5
20260505160527 19 0 0.0 0.0 0.00 0.00 0.00 57 1016.5
20260505152558 20 0 0.0 0.0 0.00 0.00 0.00 54 1016.2
20260505151552 20 0 0.0 0.0 0.00 0.00 0.00 54 1016.2
20260505150545 20 0 0.0 0.0 0.00 0.00 0.00 53 1016.2
20260505140602 21 0 0.0 0.0 0.00 0.00 0.00 54 1015.5
20260505124606 20 0 0.0 0.0 0.00 0.00 0.00 57 1015.2
20260505123558 20 0 0.0 0.0 0.00 0.00 0.00 57 1015.2
20260505122552 20 0 0.0 0.0 0.00 0.00 0.00 58 1015.4
20260505121545 20 0 0.0 0.0 0.00 0.00 0.00 59 1015.4
20260505120538 20 0 0.0 0.0 0.00 0.00 0.00 59 1015.4
20260505115531 19 0 0.0 0.0 0.00 0.00 0.00 60 1015.4
20260505114524 19 0 0.0 0.0 0.00 0.00 0.00 61 1015.4
20260505113617 19 0 0.0 0.0 0.00 0.00 0.00 62 1015.6
20260505112610 18 0 0.0 0.0 0.00 0.00 0.00 63 1015.8
20260505111602 18 0 0.0 0.0 0.00 0.00 0.00 63 1015.9
20260505110555 18 0 0.0 0.0 0.00 0.00 0.00 63 1015.9
20260505101520 18 0 0.0 0.0 0.00 0.00 0.00 66 1016.1
20260505100613 17 0 0.0 0.0 0.00 0.00 0.00 66 1016.2
20260505095606 17 0 0.0 0.0 0.00 0.00 0.00 68 1016.2
20260505094559 17 0 0.0 0.0 0.00 0.00 0.00 68 1016.3
20260505093551 17 0 0.0 0.0 0.00 0.00 0.00 69 1016.3
20260505092545 17 0 0.0 0.0 0.00 0.00 0.00 70 1016.3
20260505091536 17 0 0.0 0.0 0.00 0.00 0.00 71 1016.3
20260505090529 16 0 0.0 0.0 0.00 0.00 0.00 72 1016.3
20260505085522 16 0 0.0 0.0 0.00 0.00 0.00 72 1016.3
20260505084616 16 0 0.0 0.0 0.00 0.00 0.00 73 1016.3
20260505083609 16 0 0.0 0.0 0.00 0.00 0.00 73 1016.4
20260505082602 16 0 0.0 0.0 0.00 0.00 0.00 73 1016.3
20260505081555 16 0 0.0 0.0 0.00 0.00 0.00 74 1016.2
20260505080548 16 0 0.0 0.0 0.00 0.00 0.00 74 1016.3
20260505075540 16 0 0.0 0.0 0.00 0.00 0.00 74 1016.3
20260505074533 16 0 0.0 0.0 0.00 0.00 0.00 74 1016.3
20260505073526 16 0 0.0 0.0 0.00 0.00 0.00 73 1016.2
20260505072519 16 0 0.0 0.0 0.00 0.00 0.00 73 1016.1
20260505071612 15 0 0.0 0.0 0.00 0.00 0.00 73 1016.1
20260505070606 15 0 0.0 0.0 0.00 0.00 0.00 72 1015.9
20260505065558 15 0 0.0 0.0 0.00 0.00 0.00 72 1015.8
20260505064551 15 0 0.0 0.0 0.00 0.00 0.00 71 1015.8
20260505063544 15 0 0.0 0.0 0.00 0.00 0.00 70 1015.7
20260505062538 15 0 0.0 0.0 0.00 0.00 0.00 70 1015.5
20260505061529 15 0 0.0 0.0 0.00 0.00 0.00 70 1015.4
20260505060523 15 0 0.0 0.0 0.00 0.00 0.00 70 1015.2
20260505055616 15 0 0.0 0.0 0.00 0.00 0.00 70 1015.1
20260505054609 16 0 0.0 0.0 0.00 0.00 0.00 70 1015.1
20260505053602 16 0 0.0 0.0 0.00 0.00 0.00 70 1015.2
20260505052556 16 0 0.0 0.0 0.00 0.00 0.00 70 1015.1
20260505051549 16 0 0.0 0.0 0.00 0.00 0.00 71 1014.9
20260505050540 16 0 0.0 0.0 0.00 0.00 0.00 71 1014.7
20260505041606 16 0 0.0 0.0 0.00 0.00 0.00 71 1014.4
20260505040559 16 0 0.0 0.0 0.00 0.00 0.00 71 1014.3
20260505035552 16 0 0.0 0.0 0.00 0.00 0.00 71 1014.4
20260505034546 16 0 0.0 0.0 0.00 0.00 0.00 71 1014.3
20260505033539 16 0 0.0 0.0 0.00 0.00 0.00 70 1014.2
20260505032532 16 0 0.0 0.0 0.00 0.00 0.00 70 1014.2
20260505031525 16 0 0.0 0.0 0.00 0.00 0.00 70 1014.2
20260505030518 16 0 0.0 0.0 0.00 0.00 0.00 70 1014.2
20260505025611 16 0 0.0 0.0 0.00 0.00 0.00 70 1014.0
20260505024603 16 0 0.0 0.0 0.00 0.00 0.00 70 1014.0
20260505023556 16 0 0.0 0.0 0.00 0.00 0.00 70 1014.1
20260505022549 16 0 0.0 0.0 0.00 0.00 0.00 70 1014.1
20260505021542 16 0 0.0 0.0 0.00 0.00 0.00 70 1014.1
20260505020535 16 0 0.0 0.0 0.00 0.00 0.00 70 1014.1
20260505015527 16 0 0.0 0.0 0.00 0.00 0.00 70 1014.0
20260505014520 16 0 0.0 0.0 0.00 0.00 0.00 70 1014.1
20260505013614 16 0 0.0 0.0 0.00 0.00 0.00 70 1014.2
20260505012607 16 0 0.0 0.0 0.00 0.00 0.00 70 1014.2
20260505011559 16 0 0.0 0.0 0.00 0.00 0.00 70 1014.3
20260505010552 16 0 0.0 0.0 0.00 0.00 0.00 70 1014.3
20260505005546 16 0 0.0 0.0 0.00 0.00 0.00 70 1014.5
20260505004539 16 0 0.0 0.0 0.00 0.00 0.00 70 1014.6
20260505003532 17 0 0.0 0.0 0.00 0.00 0.00 70 1014.6
20260505002526 17 0 0.0 0.0 0.00 0.00 0.00 70 1014.6
20260505001518 17 0 0.0 0.0 0.00 0.00 0.00 70 1014.7
20260505000612 17 0 0.0 0.0 0.00 0.00 0.00 70 1014.7
20260504235606 17 0 0.0 0.0 0.00 0.00 0.00 70 1014.7
20260504234558 17 0 0.0 0.0 0.00 0.00 0.00 70 1014.6
20260504233552 17 0 0.0 0.0 0.00 0.00 0.00 70 1014.6
20260504232545 17 0 0.0 0.0 0.00 0.00 0.00 70 1014.5
20260504231538 17 0 0.0 0.0 0.00 0.00 0.00 70 1014.5
20260504230531 17 0 0.0 0.0 0.00 0.00 0.00 70 1014.5